Miscellaneous Local Product
Issued by NWS Hastings, NE

Home | Current Version | Previous Version | Graphics & Text | Print | Product List | Glossary On
Versions: 1 2 3 4 5 6 7 8 9 10 11 12 13 14 15 16 17 18 19 20 21 22 23 24 25 26 27 28 29 30 31 32 33 34 35 36 37 38 39 40 41 42 43 44 45 46 47 48 49 50
000
AXUS43 KGID 290902
MISGRI

GID CWA HOURLY WEATHER ROUNDUP
NATIONAL WEATHER SERVICE HASTINGS NE
400 AM CDT FRI AUG 29 2014

NOTE: "FAIR" INDICATES FEW OR NO CLOUDS BELOW 12,000 FEET WITH NO
SIGNIFICANT WEATHER AND/OR OBSTRUCTIONS TO VISIBILITY.

...SOUTH CENTRAL NEBRASKA...

CITY           SKY/WX    TMP DP  RH WIND       PRES   REMARKS
GRAND ISLAND   CLOUDY    67  64  90 NW5       29.82S
HASTINGS       CLOUDY    67  62  84 SE3       29.82S
KEARNEY        CLOUDY    64  63  94 W8        29.84F
ORD            MOCLDY    63  62  97 NW8       29.83S
YORK           CLOUDY    68 N/A N/A S7        29.82S
AURORA         CLOUDY    68  67  97 S5        29.82R
LEXINGTON      PTCLDY    62  60  94 NW6       29.88R
HOLDREGE       CLOUDY    63  61  93 CALM      29.84F
HEBRON         LGT RAIN  69  65  85 SW9       29.81F

...NEBRASKA PANHANDLE...

CITY           SKY/WX    TMP DP  RH WIND       PRES   REMARKS
CHADRON        CLEAR     54  52  93 W5        29.92S
ALLIANCE       CLEAR     50  48  93 W6        29.95F
SCOTTSBLUFF    CLEAR     50  49  96 N5        29.98F
SIDNEY         CLEAR     55  49  80 NW12      30.01F

...WESTERN AND NORTH CENTRAL NEBRASKA...

CITY           SKY/WX    TMP DP  RH WIND       PRES   REMARKS
VALENTINE      PTCLDY    60  59  96 W3        29.87S
AINSWORTH      PTCLDY    60  60  97 W7        29.87S
ONEILL         MOCLDY    64  63  97 W3        29.83R
BROKEN BOW     PTCLDY    62  59  90 CALM      29.87S
IMPERIAL       CLEAR     57  53  86 NW8       29.95R
NORTH PLATTE   CLEAR     57  54  89 CALM      29.91S
MCCOOK         PTCLDY    59  56  89 W7        29.90F

...EASTERN NEBRASKA...

CITY           SKY/WX    TMP DP  RH WIND       PRES   REMARKS
NORFOLK        MOCLDY    69  67  93 W5        29.79S
SO SIOUX CITY  MOCLDY    72  69  90 S7        29.78F
TEKAMAH        MOCLDY    72  70  93 SE8       29.79F
COLUMBUS       MOCLDY    70  66  88 S8        29.81S
ALBION         CLOUDY    65  63  94 NW6       29.82R
OMAHA EPPLEY   CLOUDY    72  68  87 SE7       29.80F
OFFUTT AFB     MOCLDY    70  70 100 E2        29.80F
MILLARD        MOCLDY    71  69  90 CALM      29.81S
LINCOLN        MOCLDY    71  67  87 S3        29.81F
NEBRASKA CITY  MOCLDY    70  70 100 CALM      29.82S FOG
BEATRICE       MOCLDY    71  67  86 S7        29.82F
FALLS CITY     MOCLDY    74  68  81 S5        29.80F

...NORTHERN KANSAS...

CITY           SKY/WX    TMP DP  RH WIND       PRES   REMARKS
GOODLAND       CLEAR     56  54  93 W9        29.98S
HILL CITY      CLOUDY    65  59  81 W12       29.86F
NORTON         SUNNY     61  54  77 W10       29.87S
SMITH CENTER   MOCLDY    66  63  88 W7        29.83S
BELOIT         MOCLDY    70  64  83 S8        29.84R
HAYS           CLOUDY    64  55  72 SW8       29.89R
RUSSELL        CLOUDY    66  61  84 W7        29.86R
CONCORDIA      CLOUDY    68  66  93 SW16G24   29.82F
SALINA         CLOUDY    71  62  73 SW12      29.83F
TOPEKA         MOCLDY    73  65  75 SE8       29.82F



USA.gov is the U.S. government's official web portal to all federal, state and local government web resources and services.